QPF
0.00 0.00 0.00 0.00 0.00 0.00 0.00 0.00 0.00 0.00 0.00 0.00 0.00 0.00 0.00 0.00 0.00 0.00 0.00 0.00 0.00 0.00 0.00 0.00 0.00 0.00 0.00 0.00 0.00 0.00 0.00 0.00 0.00 0.00 0.00 0.00 0.00 0.00 0.00 0.00 0.00 0.00 0.00 0.00
0.00 0.00 0.00 0.00 0.00 0.00 0.00 0.00 0.00 0.00 0.00 0.00 0.00 0.00 0.00 0.00 0.00 0.00 0.00 0.00 0.00 0.00 0.00 0.00 0.00 0.00 0.00 0.00 0.00 0.00 0.00 0.00 0.00 0.00 0.00 0.00 0.00 0.00 0.00 0.00 0.00 0.00 0.00 0.00
0.00 0.00 0.00 0.00 0.00 0.00 0.00 0.00 0.00 0.00 0.00 0.00 0.00 0.00 0.00 0.00 0.00 0.00 0.00 0.00 0.00 0.00 0.00 0.00 0.00 0.00 0.00 0.00 0.00 0.00 0.00 0.00 0.00 0.00 0.00 0.00 0.00 0.00 0.00 0.00 0.00 0.00 0.00 0.00
0.00 0.00 0.00 0.00 0.00 0.00 0.00 0.00 0.00 0.00 0.00 0.00 0.00 0.00 0.00 0.00 0.00 0.00 0.00 0.00 0.00 0.00 0.00 0.00 0.00 0.00 0.00 0.00 0.00 0.00 0.00 0.00 0.00 0.00 0.00 0.00 0.00 0.00 0.00 0.00 0.00 0.00 0.00 0.00
0.00 0.00 0.00 0.00 0.00 0.00 0.00 0.00 0.00 0.00 0.00 0.00 0.00 0.00 0.00 0.00 0.00 0.00 0.00 0.00 0.00 0.00 0.00 0.00 0.00 0.00 0.00 0.00 0.00 0.00 0.00 0.00 0.00 0.00 0.00 0.00 0.00 0.00 0.00 0.00 0.00 0.00 0.00 0.00
0.00 0.00 0.00 0.00 0.00 0.00 0.00 0.00 0.00 0.00 0.00 0.00 0.00 0.00 0.00 0.00 0.00 0.00 0.00 0.00 0.00 0.00 0.00 0.00 0.00 0.00 0.00 0.00 0.00 0.00 0.00 0.00 0.00 0.00 0.00 0.00 0.00 0.00 0.00 0.00 0.00 0.00 0.00 0.00
0.00 0.00 0.00 0.00 0.00 0.00 0.00 0.00 0.00 0.00 0.00 0.00 0.00 0.00 0.00 0.00 0.00 0.00 0.00 0.00 0.00 0.00 0.00 0.00 0.00 0.00 0.00 0.00 0.00 0.00 0.00 0.00 0.00 0.00 0.00 0.00 0.00 0.00 0.00 0.00 0.00 0.00 0.00 0.00
0.00 0.00 0.00 0.00 0.00 0.00 0.00 0.00 0.00 0.00 0.00 0.00 0.00 0.00 0.00 0.00 0.00 0.00 0.00 0.00 0.00 0.00 0.00 0.00 0.00 0.00 0.00 0.00 0.00 0.00 0.00 0.00 0.00 0.00 0.00 0.00 0.00 0.00 0.00 0.00 0.00 0.00 0.00 0.00
0.00 0.00 0.00 0.00 0.00 0.00 0.00 0.00 0.00 0.00 0.00 0.00 0.00 0.00 0.00 0.00 0.00 0.00 0.00 0.00 0.00 0.00 0.00 0.00 0.00 0.00 0.00 0.00 0.00 0.00 0.00 0.00 0.00 0.00 0.00 0.00 0.00 0.00 0.00 0.00 0.00 0.00 0.00 0.00
0.00 0.00 0.00 0.00 0.00 0.00 0.00 0.00 0.00 0.00 0.00 0.00 0.00 0.00 0.00 0.00 0.00 0.00 0.00 0.00 0.00 0.00 0.00 0.00 0.00 0.00 0.00 0.00 0.00 0.00 0.00 0.00 0.00 0.00 0.00 0.00 0.00 0.00 0.00 0.00 0.00 0.00 0.00 0.00
0.00 0.00 0.00 0.00 0.00 0.00 0.00 0.00 0.00 0.00 0.00 0.00 0.00 0.00 0.00 0.00 0.00 0.00 0.00 0.00 0.00 0.00 0.00 0.00 0.00 0.00 0.00 0.00 0.00 0.00 0.00 0.00 0.00 0.00 0.00 0.00 0.00 0.00 0.00 0.00 0.00 0.00 0.00 0.00
0.00 0.00 0.00 0.00 0.00 0.00 0.00 0.00 0.00 0.00 0.00 0.00 0.00 0.00 0.00 0.00 0.00 0.00 0.00 0.00 0.00 0.00 0.00 0.00 0.00 0.00 0.00 0.00 0.00 0.00 0.00 0.00 0.00 0.00 0.00 0.00 0.00 0.00 0.00 0.00 0.00 0.00 0.00 0.00
0.00 0.00 0.00 0.00 0.00 0.00 0.00 0.00 0.00 0.00 0.00 0.00 0.00 0.00 0.00 0.00 0.00 0.00 0.00 0.00 0.00 0.00 0.00 0.00 0.00 0.00 0.00 0.00 0.00 0.00 0.00 0.00 0.00 0.00 0.00 0.00 0.00 0.00 0.00 0.00 0.00 0.00 0.00 0.00
0.00 0.00 0.00 0.00 0.00 0.00 0.00 0.00 0.00 0.00 0.00 0.00 0.00 0.00 0.00 0.00 0.00 0.00 0.00 0.00 0.00 0.00 0.00 0.00 0.00 0.00 0.00 0.00 0.00 0.00 0.00 0.00 0.00 0.00 0.00 0.00 0.00 0.00 0.00 0.00 0.00 0.00 0.00 0.00
0.00 0.00 0.00 0.00 0.00 0.00 0.00 0.00 0.00 0.00 0.00 0.00 0.00 0.00 0.00 0.00 0.00 0.00 0.00 0.00 0.00 0.00 0.00 0.00 0.00 0.00 0.00 0.00 0.00 0.00 0.00 0.00 0.00 0.00 0.00 0.00 0.00 0.00 0.00 0.00 0.00 0.00 0.00 0.00
0.00 0.00 0.00 0.00 0.00 0.00 0.00 0.00 0.00 0.00 0.00 0.00 0.00 0.00 0.00 0.00 0.00 0.00 0.00 0.00 0.00 0.00 0.00 0.00 0.00 0.00 0.00 0.00 0.00 0.00 0.00 0.00 0.00 0.00 0.00 0.00 0.00 0.00 0.00 0.00 0.00 0.00 0.00 0.00
0.00 0.00 0.00 0.00 0.00 0.00 0.00 0.00 0.00 0.00 0.00 0.00 0.00 0.00 0.00 0.00 0.00 0.00 0.00 0.00 0.00 0.00 0.00 0.00 0.00 0.00 0.00 0.00 0.00 0.00 0.00 0.00 0.00 0.00 0.00 0.00 0.00 0.00 0.00 0.00 0.00 0.00 0.00 0.00
0.00 0.00 0.00 0.00 0.00 0.00 0.00 0.00 0.00 0.00 0.00 0.00 0.00 0.00 0.00 0.00 0.00 0.00 0.00 0.00 0.00 0.00 0.00 0.00 0.00 0.00 0.00 0.00 0.00 0.00 0.00 0.00 0.00 0.00 0.00 0.00 0.00 0.00 0.00 0.00 0.00 0.00 0.00 0.00
0.00 0.00 0.00 0.00 0.00 0.00 0.00 0.00 0.00 0.00 0.00 0.00 0.00 0.00 0.00 0.00 0.00 0.00 0.00 0.00 0.00 0.00 0.00 0.00 0.00 0.00 0.00 0.00 0.00 0.00 0.00 0.00 0.00 0.00 0.00 0.00 0.00 0.00 0.00 0.00 0.00 0.00 0.00 0.00
0.00 0.00 0.00 0.00 0.00 0.00 0.00 0.00 0.00 0.00 0.00 0.00 0.00 0.00 0.00 0.00 0.00 0.00 0.00 0.00 0.00 0.00 0.00 0.00 0.00 0.00 0.00 0.00 0.00 0.00 0.00 0.00 0.00 0.00 0.00 0.00 0.00 0.00 0.00 0.00 0.00 0.00 0.00 0.00
0.00 0.00 0.00 0.00 0.00 0.00 0.00 0.00 0.00 0.00 0.00 0.00 0.00 0.00 0.00 0.00 0.00 0.00 0.00 0.00 0.00 0.00 0.00 0.00 0.00 0.00 0.00 0.00 0.00 0.00 0.00 0.00 0.00 0.00 0.00 0.00 0.00 0.00 0.00 0.00 0.00 0.00 0.00 0.00
0.00 0.00 0.00 0.00 0.00 0.00 0.00 0.00 0.00 0.00 0.00 0.00 0.00 0.00 0.00 0.00 0.00 0.00 0.00 0.00 0.00 0.00 0.00 0.00 0.00 0.00 0.00 0.00 0.00 0.00 0.00 0.00 0.00 0.00 0.00 0.00 0.00 0.00 0.01 0.01 0.01 0.01 0.00 0.00
0.00 0.00 0.00 0.00 0.00 0.00 0.00 0.00 0.00 0.00 0.00 0.00 0.00 0.00 0.00 0.00 0.00 0.00 0.00 0.00 0.00 0.00 0.00 0.00 0.00 0.00 0.00 0.00 0.00 0.00 0.00 0.00 0.00 0.00 0.00 0.00 0.01 0.01 0.01 0.01 0.01 0.01 0.01 0.00
0.00 0.00 0.00 0.00 0.00 0.00 0.00 0.00 0.00 0.00 0.00 0.00 0.00 0.00 0.00 0.00 0.00 0.00 0.00 0.00 0.00 0.00 0.00 0.00 0.00 0.00 0.00 0.00 0.00 0.00 0.00 0.00 0.00 0.00 0.00 0.01 0.01 0.01 0.01 0.01 0.01 0.01 0.01 0.00
0.00 0.00 0.00 0.00 0.00 0.00 0.00 0.00 0.00 0.00 0.00 0.00 0.00 0.00 0.00 0.00 0.00 0.00 0.00 0.00 0.00 0.00 0.00 0.00 0.00 0.00 0.00 0.00 0.00 0.00 0.00 0.00 0.00 0.00 0.00 0.01 0.01 0.01 0.01 0.01 0.01 0.01 0.01 0.00
0.00 0.00 0.00 0.00 0.00 0.00 0.00 0.00 0.00 0.00 0.00 0.00 0.00 0.00 0.00 0.00 0.00 0.00 0.00 0.00 0.00 0.00 0.00 0.00 0.00 0.00 0.00 0.00 0.00 0.00 0.00 0.00 0.00 0.00 0.00 0.01 0.01 0.02 0.02 0.02 0.01 0.01 0.01 0.01
MSLP
1021.04 1021.61 1022.12 1022.54 1022.88 1023.13 1023.32 1023.44 1023.50 1023.51 1023.46 1023.34 1023.16 1022.94 1022.69 1022.45 1022.24 1022.11 1022.06 1022.12 1022.27 1022.52 1022.85 1023.24 1023.67 1024.13 1024.63 1025.15 1025.69 1026.26 1026.84 1027.42 1027.98 1028.49 1028.94 1029.31 1029.59 1029.78 1029.89 1029.93 1029.93 1029.91 1029.88 1029.85
1021.31 1021.72 1022.06 1022.32 1022.53 1022.71 1022.87 1023.03 1023.16 1023.24 1023.24 1023.14 1022.92 1022.60 1022.20 1021.77 1021.37 1021.06 1020.88 1020.85 1020.98 1021.26 1021.64 1022.10 1022.61 1023.13 1023.67 1024.21 1024.77 1025.36 1025.98 1026.62 1027.26 1027.88 1028.44 1028.90 1029.26 1029.49 1029.61 1029.64 1029.60 1029.53 1029.46 1029.41
1021.43 1021.67 1021.84 1021.97 1022.09 1022.23 1022.42 1022.65 1022.87 1023.03 1023.08 1022.97 1022.68 1022.21 1021.62 1020.97 1020.35 1019.84 1019.51 1019.39 1019.50 1019.81 1020.27 1020.83 1021.43 1022.04 1022.63 1023.22 1023.81 1024.43 1025.09 1025.79 1026.50 1027.21 1027.86 1028.41 1028.84 1029.11 1029.25 1029.27 1029.21 1029.11 1029.02 1028.96
1021.41 1021.50 1021.54 1021.57 1021.65 1021.81 1022.07 1022.38 1022.71 1022.95 1023.03 1022.89 1022.49 1021.84 1021.03 1020.12 1019.25 1018.53 1018.04 1017.84 1017.92 1018.27 1018.81 1019.48 1020.19 1020.89 1021.56 1022.20 1022.83 1023.47 1024.16 1024.90 1025.67 1026.44 1027.17 1027.79 1028.28 1028.60 1028.77 1028.79 1028.73 1028.62 1028.52 1028.45
1021.31 1021.28 1021.23 1021.22 1021.31 1021.53 1021.88 1022.31 1022.74 1023.05 1023.14 1022.93 1022.39 1021.55 1020.48 1019.31 1018.19 1017.25 1016.60 1016.30 1016.37 1016.75 1017.37 1018.14 1018.95 1019.75 1020.49 1021.17 1021.83 1022.49 1023.20 1023.95 1024.76 1025.57 1026.35 1027.03 1027.58 1027.95 1028.15 1028.20 1028.15 1028.05 1027.95 1027.89
1021.21 1021.10 1021.00 1020.98 1021.12 1021.43 1021.89 1022.44 1022.96 1023.31 1023.39 1023.09 1022.40 1021.35 1020.03 1018.60 1017.23 1016.09 1015.29 1014.91 1014.95 1015.36 1016.05 1016.90 1017.80 1018.67 1019.47 1020.19 1020.86 1021.52 1022.21 1022.97 1023.77 1024.61 1025.42 1026.14 1026.73 1027.16 1027.40 1027.50 1027.48 1027.42 1027.35 1027.30
1021.14 1020.98 1020.88 1020.90 1021.10 1021.51 1022.08 1022.72 1023.31 1023.68 1023.71 1023.32 1022.47 1021.21 1019.67 1018.01 1016.44 1015.12 1014.19 1013.73 1013.75 1014.18 1014.91 1015.83 1016.79 1017.71 1018.54 1019.27 1019.94 1020.58 1021.24 1021.97 1022.76 1023.59 1024.41 1025.16 1025.80 1026.27 1026.57 1026.73 1026.77 1026.75 1026.72 1026.71
1021.12 1020.96 1020.87 1020.95 1021.23 1021.72 1022.37 1023.07 1023.67 1024.02 1023.98 1023.48 1022.48 1021.06 1019.34 1017.51 1015.78 1014.34 1013.33 1012.82 1012.81 1013.25 1014.01 1014.95 1015.94 1016.88 1017.72 1018.45 1019.08 1019.69 1020.31 1021.00 1021.76 1022.57 1023.38 1024.15 1024.82 1025.34 1025.71 1025.93 1026.04 1026.08 1026.10 1026.13
1021.14 1020.99 1020.95 1021.08 1021.41 1021.95 1022.63 1023.33 1023.90 1024.19 1024.06 1023.44 1022.33 1020.78 1018.95 1017.02 1015.22 1013.72 1012.67 1012.14 1012.12 1012.55 1013.31 1014.25 1015.24 1016.18 1016.99 1017.69 1018.29 1018.86 1019.44 1020.08 1020.80 1021.58 1022.39 1023.17 1023.86 1024.43 1024.85 1025.14 1025.32 1025.43 1025.50 1025.57
1021.17 1021.06 1021.05 1021.21 1021.57 1022.10 1022.74 1023.37 1023.85 1024.03 1023.79 1023.07 1021.87 1020.26 1018.40 1016.46 1014.66 1013.18 1012.15 1011.63 1011.61 1012.04 1012.78 1013.69 1014.65 1015.54 1016.32 1016.98 1017.55 1018.07 1018.62 1019.22 1019.91 1020.67 1021.46 1022.24 1022.95 1023.56 1024.04 1024.38 1024.63 1024.80 1024.92 1025.01
1021.17 1021.10 1021.12 1021.28 1021.61 1022.07 1022.60 1023.10 1023.42 1023.45 1023.09 1022.27 1021.02 1019.42 1017.60 1015.74 1014.03 1012.64 1011.68 1011.21 1011.21 1011.62 1012.32 1013.18 1014.08 1014.92 1015.65 1016.27 1016.81 1017.31 1017.83 1018.41 1019.08 1019.82 1020.60 1021.38 1022.11 1022.74 1023.25 1023.65 1023.94 1024.15 1024.31 1024.42
1021.13 1021.09 1021.12 1021.25 1021.49 1021.82 1022.18 1022.47 1022.60 1022.44 1021.94 1021.05 1019.79 1018.24 1016.54 1014.82 1013.28 1012.03 1011.19 1010.79 1010.82 1011.21 1011.86 1012.65 1013.47 1014.24 1014.92 1015.50 1016.02 1016.51 1017.03 1017.62 1018.28 1019.02 1019.79 1020.57 1021.30 1021.94 1022.48 1022.90 1023.23 1023.47 1023.65 1023.77
1021.06 1021.05 1021.06 1021.12 1021.23 1021.37 1021.50 1021.55 1021.43 1021.08 1020.43 1019.48 1018.24 1016.80 1015.25 1013.74 1012.40 1011.34 1010.65 1010.33 1010.39 1010.75 1011.33 1012.03 1012.76 1013.45 1014.08 1014.63 1015.14 1015.64 1016.18 1016.79 1017.47 1018.21 1018.99 1019.76 1020.49 1021.14 1021.69 1022.13 1022.47 1022.72 1022.91 1023.04
1020.99 1020.99 1020.96 1020.92 1020.86 1020.78 1020.65 1020.42 1020.05 1019.48 1018.70 1017.70 1016.51 1015.20 1013.85 1012.57 1011.46 1010.61 1010.06 1009.83 1009.90 1010.23 1010.73 1011.32 1011.95 1012.55 1013.12 1013.64 1014.15 1014.67 1015.25 1015.89 1016.59 1017.36 1018.15 1018.92 1019.65 1020.30 1020.85 1021.30 1021.65 1021.92 1022.11 1022.23
1020.97 1020.96 1020.86 1020.70 1020.46 1020.14 1019.74 1019.24 1018.61 1017.85 1016.94 1015.91 1014.78 1013.61 1012.47 1011.42 1010.54 1009.88 1009.47 1009.32 1009.40 1009.66 1010.06 1010.54 1011.05 1011.55 1012.05 1012.55 1013.05 1013.60 1014.21 1014.89 1015.63 1016.42 1017.23 1018.02 1018.75 1019.41 1019.97 1020.43 1020.79 1021.07 1021.26 1021.38
1021.01 1020.96 1020.79 1020.49 1020.07 1019.52 1018.87 1018.11 1017.25 1016.32 1015.31 1014.26 1013.20 1012.18 1011.23 1010.40 1009.73 1009.24 1008.95 1008.84 1008.90 1009.09 1009.38 1009.73 1010.11 1010.51 1010.93 1011.39 1011.89 1012.46 1013.09 1013.81 1014.58 1015.40 1016.23 1017.03 1017.77 1018.45 1019.02 1019.50 1019.89 1020.19 1020.40 1020.53
1021.10 1020.99 1020.73 1020.30 1019.71 1018.96 1018.09 1017.12 1016.07 1015.00 1013.92 1012.88 1011.89 1011.00 1010.22 1009.58 1009.09 1008.74 1008.53 1008.45 1008.47 1008.57 1008.74 1008.95 1009.20 1009.49 1009.83 1010.23 1010.71 1011.27 1011.93 1012.67 1013.46 1014.30 1015.14 1015.96 1016.73 1017.43 1018.04 1018.55 1018.98 1019.31 1019.55 1019.70
1021.16 1020.98 1020.63 1020.08 1019.34 1018.44 1017.40 1016.27 1015.09 1013.93 1012.82 1011.80 1010.90 1010.12 1009.49 1009.01 1008.65 1008.40 1008.24 1008.15 1008.12 1008.13 1008.17 1008.24 1008.36 1008.54 1008.79 1009.13 1009.57 1010.11 1010.76 1011.50 1012.31 1013.15 1014.01 1014.85 1015.64 1016.37 1017.02 1017.58 1018.06 1018.45 1018.73 1018.91
1021.09 1020.83 1020.38 1019.73 1018.89 1017.87 1016.72 1015.50 1014.27 1013.07 1011.97 1010.99 1010.17 1009.50 1009.00 1008.62 1008.36 1008.18 1008.04 1007.94 1007.84 1007.76 1007.69 1007.64 1007.64 1007.70 1007.86 1008.12 1008.51 1009.02 1009.64 1010.36 1011.16 1012.00 1012.86 1013.71 1014.52 1015.29 1015.99 1016.61 1017.15 1017.59 1017.93 1018.16
1020.77 1020.42 1019.88 1019.15 1018.24 1017.17 1015.98 1014.73 1013.50 1012.32 1011.26 1010.36 1009.62 1009.05 1008.64 1008.36 1008.16 1008.02 1007.89 1007.76 1007.61 1007.44 1007.27 1007.11 1007.01 1006.97 1007.04 1007.23 1007.56 1008.01 1008.60 1009.28 1010.05 1010.87 1011.72 1012.57 1013.41 1014.21 1014.95 1015.62 1016.22 1016.72 1017.12 1017.39
1020.12 1019.67 1019.05 1018.27 1017.33 1016.25 1015.08 1013.87 1012.69 1011.59 1010.61 1009.80 1009.15 1008.67 1008.34 1008.12 1007.97 1007.84 1007.71 1007.55 1007.35 1007.12 1006.87 1006.63 1006.44 1006.33 1006.32 1006.44 1006.70 1007.10 1007.63 1008.27 1009.00 1009.79 1010.62 1011.47 1012.31 1013.13 1013.91 1014.62 1015.26 1015.81 1016.26 1016.58
1019.11 1018.56 1017.88 1017.06 1016.12 1015.09 1013.99 1012.88 1011.80 1010.81 1009.95 1009.23 1008.68 1008.28 1008.02 1007.84 1007.71 1007.60 1007.45 1007.27 1007.03 1006.75 1006.45 1006.15 1005.90 1005.72 1005.66 1005.71 1005.91 1006.25 1006.73 1007.32 1008.01 1008.77 1009.58 1010.41 1011.25 1012.08 1012.87 1013.60 1014.27 1014.85 1015.33 1015.69
1017.77 1017.13 1016.40 1015.58 1014.68 1013.73 1012.75 1011.77 1010.83 1009.99 1009.25 1008.66 1008.20 1007.87 1007.65 1007.50 1007.39 1007.26 1007.11 1006.90 1006.64 1006.32 1005.98 1005.65 1005.35 1005.12 1005.01 1005.01 1005.16 1005.45 1005.87 1006.42 1007.07 1007.80 1008.58 1009.40 1010.23 1011.05 1011.84 1012.58 1013.25 1013.84 1014.34 1014.72
1016.22 1015.50 1014.74 1013.95 1013.13 1012.29 1011.45 1010.64 1009.87 1009.18 1008.59 1008.11 1007.74 1007.47 1007.28 1007.14 1007.02 1006.88 1006.71 1006.47 1006.18 1005.84 1005.47 1005.10 1004.77 1004.51 1004.34 1004.31 1004.41 1004.65 1005.03 1005.55 1006.16 1006.87 1007.63 1008.44 1009.25 1010.06 1010.84 1011.56 1012.23 1012.81 1013.30 1013.69
1014.62 1013.84 1013.08 1012.35 1011.63 1010.93 1010.26 1009.62 1009.04 1008.51 1008.05 1007.68 1007.38 1007.15 1006.97 1006.83 1006.68 1006.52 1006.30 1006.04 1005.71 1005.34 1004.94 1004.53 1004.17 1003.87 1003.66 1003.58 1003.64 1003.84 1004.19 1004.68 1005.27 1005.96 1006.72 1007.51 1008.32 1009.11 1009.87 1010.58 1011.22 1011.78 1012.26 1012.65
1013.13 1012.33 1011.60 1010.95 1010.36 1009.83 1009.33 1008.88 1008.46 1008.08 1007.75 1007.45 1007.21 1007.00 1006.81 1006.64 1006.45 1006.24 1005.98 1005.66 1005.30 1004.88 1004.44 1003.99 1003.58 1003.23 1002.97 1002.84 1002.85 1003.02 1003.34 1003.80 1004.39 1005.07 1005.83 1006.62 1007.42 1008.21 1008.95 1009.64 1010.26 1010.80 1011.26 1011.65
Thickness
5708 5693 5684 5684 5682 5687 5685 5681 5677 5680 5678 5666 5663 5672 5685 5677 5667 5665 5660 5656 5656 5660 5657 5647 5638 5628 5618 5609 5600 5591 5582 5572 5561 5549 5538 5528 5519 5510 5501 5491 5481 5469 5458 5446
5692 5686 5695 5696 5693 5689 5686 5679 5677 5678 5676 5669 5665 5673 5689 5687 5679 5679 5676 5670 5667 5663 5654 5648 5640 5630 5621 5612 5602 5592 5582 5572 5561 5550 5539 5527 5516 5505 5494 5484 5473 5462 5450 5437
5691 5694 5700 5695 5690 5685 5683 5677 5675 5675 5674 5669 5663 5672 5689 5696 5686 5683 5680 5678 5673 5669 5663 5655 5645 5634 5623 5615 5606 5596 5583 5572 5560 5548 5535 5522 5510 5498 5487 5476 5465 5453 5440 5427
5693 5696 5694 5689 5685 5684 5673 5678 5676 5672 5661 5652 5660 5651 5681 5692 5689 5686 5683 5678 5677 5674 5669 5661 5652 5640 5630 5621 5608 5597 5583 5571 5558 5545 5532 5519 5505 5492 5482 5470 5457 5444 5431 5417
5687 5689 5686 5681 5683 5683 5677 5676 5671 5665 5657 5648 5650 5646 5673 5686 5685 5693 5693 5688 5685 5681 5673 5667 5660 5650 5637 5623 5608 5596 5582 5569 5556 5543 5530 5516 5503 5490 5476 5463 5449 5436 5422 5408
5686 5691 5687 5684 5683 5681 5674 5666 5659 5646 5640 5639 5650 5641 5661 5678 5690 5699 5701 5696 5691 5686 5677 5670 5661 5649 5635 5620 5606 5593 5580 5567 5554 5541 5528 5514 5500 5485 5470 5456 5442 5428 5414 5399
5678 5682 5685 5683 5673 5668 5664 5649 5638 5639 5630 5639 5653 5647 5673 5698 5699 5702 5705 5701 5696 5687 5677 5667 5657 5646 5634 5618 5605 5592 5579 5566 5552 5539 5526 5513 5498 5483 5468 5453 5438 5422 5406 5391
5662 5663 5675 5674 5669 5659 5652 5647 5633 5629 5624 5634 5650 5649 5685 5704 5703 5701 5701 5700 5694 5684 5675 5668 5660 5649 5635 5620 5605 5591 5579 5566 5551 5537 5524 5510 5496 5481 5466 5451 5435 5419 5403 5387
5658 5660 5671 5670 5668 5663 5653 5642 5641 5627 5623 5619 5634 5653 5679 5702 5701 5698 5695 5692 5687 5682 5674 5667 5657 5645 5633 5619 5606 5593 5579 5565 5551 5537 5522 5507 5493 5478 5463 5448 5432 5416 5399 5383
5662 5654 5664 5662 5659 5657 5652 5643 5626 5619 5613 5610 5625 5640 5665 5693 5691 5690 5685 5682 5682 5677 5669 5661 5652 5642 5630 5618 5604 5589 5577 5564 5550 5535 5521 5507 5491 5477 5461 5445 5428 5412 5396 5379
5658 5646 5651 5649 5645 5645 5637 5634 5629 5617 5609 5603 5608 5646 5682 5688 5691 5686 5686 5683 5679 5674 5668 5661 5652 5640 5625 5610 5597 5584 5572 5559 5546 5532 5518 5505 5490 5474 5458 5442 5426 5410 5393 5376
5649 5634 5633 5643 5650 5646 5638 5635 5624 5615 5614 5603 5596 5645 5691 5686 5684 5679 5679 5679 5676 5671 5666 5658 5646 5631 5617 5605 5593 5581 5569 5557 5545 5531 5516 5502 5486 5470 5455 5439 5423 5407 5390 5374
5640 5628 5625 5636 5638 5637 5633 5631 5625 5621 5611 5599 5596 5644 5685 5681 5680 5676 5671 5671 5668 5665 5660 5649 5636 5625 5615 5603 5591 5580 5568 5556 5543 5528 5513 5498 5483 5467 5452 5437 5421 5404 5387 5371
5633 5622 5622 5627 5634 5633 5628 5630 5624 5615 5606 5604 5616 5646 5674 5677 5672 5668 5665 5662 5660 5657 5651 5641 5630 5621 5611 5601 5590 5579 5567 5554 5540 5525 5511 5497 5482 5466 5450 5434 5418 5402 5385 5369
5622 5614 5616 5623 5629 5624 5622 5626 5624 5617 5622 5618 5638 5644 5667 5678 5668 5662 5659 5655 5653 5650 5644 5635 5627 5618 5607 5596 5587 5576 5565 5552 5538 5523 5509 5496 5481 5464 5447 5431 5415 5399 5383 5368
5607 5605 5608 5614 5623 5616 5613 5626 5629 5627 5626 5628 5635 5646 5672 5668 5658 5651 5649 5646 5645 5644 5639 5633 5624 5614 5604 5595 5586 5574 5563 5550 5536 5522 5508 5493 5476 5460 5444 5429 5413 5397 5382 5366
5597 5593 5593 5595 5609 5609 5609 5635 5636 5630 5630 5628 5629 5649 5661 5652 5648 5644 5644 5640 5637 5636 5633 5628 5622 5614 5607 5597 5586 5575 5563 5547 5532 5520 5505 5489 5473 5457 5442 5427 5410 5395 5380 5364
5596 5588 5580 5577 5593 5589 5635 5646 5640 5633 5637 5635 5636 5645 5646 5642 5640 5639 5636 5632 5630 5629 5626 5623 5617 5610 5603 5594 5582 5571 5557 5543 5530 5517 5502 5486 5470 5455 5439 5423 5408 5394 5378 5363
5593 5588 5576 5562 5566 5589 5617 5634 5630 5620 5627 5639 5631 5636 5637 5630 5626 5631 5635 5628 5624 5622 5619 5615 5610 5604 5596 5587 5576 5563 5551 5538 5525 5513 5500 5485 5469 5452 5436 5420 5406 5392 5377 5363
5576 5575 5565 5551 5551 5571 5616 5630 5627 5617 5611 5634 5624 5620 5617 5610 5604 5615 5624 5621 5616 5612 5607 5603 5599 5592 5586 5578 5567 5555 5546 5534 5524 5515 5501 5484 5466 5450 5435 5421 5405 5391 5376 5363
5557 5551 5547 5548 5546 5577 5608 5615 5609 5594 5607 5618 5616 5610 5604 5593 5596 5603 5606 5604 5602 5599 5596 5592 5586 5581 5578 5568 5557 5548 5541 5534 5526 5511 5495 5479 5463 5448 5434 5418 5402 5388 5375 5362
5559 5540 5536 5537 5534 5565 5603 5592 5592 5600 5604 5602 5601 5600 5594 5589 5589 5589 5590 5590 5588 5585 5584 5581 5574 5573 5568 5558 5548 5542 5539 5533 5517 5502 5487 5472 5457 5443 5429 5413 5399 5386 5373 5360
5558 5565 5563 5559 5576 5590 5586 5586 5590 5587 5584 5585 5584 5584 5579 5576 5577 5579 5579 5579 5577 5574 5572 5569 5564 5562 5559 5550 5542 5538 5536 5522 5508 5494 5481 5467 5452 5437 5425 5411 5397 5384 5372 5360
5560 5559 5552 5553 5567 5575 5577 5575 5576 5576 5572 5572 5571 5569 5566 5563 5565 5565 5566 5565 5563 5562 5560 5557 5553 5550 5551 5545 5536 5534 5527 5514 5501 5488 5475 5461 5447 5433 5421 5408 5396 5384 5373 5360
5559 5555 5549 5556 5563 5563 5568 5568 5568 5566 5564 5562 5561 5559 5557 5554 5554 5554 5553 5553 5551 5549 5548 5545 5542 5542 5543 5539 5533 5527 5517 5506 5495 5484 5471 5458 5445 5432 5419 5407 5397 5386 5376 5364
5557 5548 5546 5558 5562 5555 5559 5558 5556 5554 5553 5551 5549 5548 5547 5542 5540 5540 5540 5540 5539 5538 5537 5534 5532 5531 5533 5531 5527 5520 5510 5500 5490 5479 5467 5455 5443 5430 5417 5405 5393 5385 5374 5365